TOTTORI_AIRPORT current weather conditions

sailwx.info

Wind from 310 at 20 knots

Air temperature 8.0° C
Visibility: greater than 5.4 NM
Dewpoint -3.0° C

Last reported at 2018-Feb-23 08:00 UTC.
Time now 2018-Feb-23 08:59 UTC

Location: N 35°32' E 134°10'.
View on Google Maps.

See reports from other nearby stations

  
Tides and Currents Weather Stations Pressure Air Temp Water Temp Dewpoint Dewpoint Depression Visibility Wind Speed Wind Dir Waves Ship Positions
date/time (UTC)wind fromknots sea level pressurealtimeterstation pressurevisibilityair tempwater tempwave heightnotes
2018-Feb-23 08:00 310 20 5.4 8.0
2018-Feb-23 07:00 280 20 5.4 9.0
2018-Feb-23 06:00 280 20 5.410.0
2018-Feb-23 05:00 280 21 5.4 9.0
2018-Feb-23 04:00 270 24 5.410.0
2018-Feb-23 03:00 270 17 5.410.0
2018-Feb-23 02:00 300 6 5.410.0
2018-Feb-23 01:00 5.4 7.0
2018-Feb-23 00:00 140 8 5.4 3.0
2018-Feb-22 23:00 140 8 5.4 1.0
2018-Feb-22 22:00 140 8 5.4-0.0
2018-Feb-22 21:30 130 8 5.4-0.0
2018-Feb-22 21:10 140 7 5.4-0.0
2018-Feb-22 12:00 160 6 5.4 2.0
2018-Feb-22 11:00 170 6 5.4 3.0
2018-Feb-22 10:00 210 4 5.4 5.0
2018-Feb-22 09:00 190 5 5.4 5.0
2018-Feb-22 08:00 270 6 5.4 5.0
2018-Feb-22 07:00 340 7 5.4 6.0
2018-Feb-22 06:00 010 7 5.4 7.0
2018-Feb-22 05:00 030 8 5.4 7.0
2018-Feb-22 04:00 5.4 6.0
2018-Feb-22 03:00 040 6 5.4 6.0
2018-Feb-22 02:00 080 5 5.4 5.0
2018-Feb-22 01:00 120 4 5.4 4.0
2018-Feb-22 00:00 170 6 5.4 3.0 Showers in the vicinity.
2018-Feb-21 23:00 180 5 5.4 2.0
2018-Feb-21 22:00 170 5 5.4 2.0 Light rain showers.
2018-Feb-21 21:30 180 6 5.4 2.0 Light rain showers.
2018-Feb-21 21:10 190 6 5.4 2.0 Light rain showers.
2018-Feb-21 12:00 210 4 3.2 2.0 Light rain showers.
2018-Feb-21 11:11 230 7 2.7 2.0 Light rain showers.
2018-Feb-21 11:08 230 9 2.2 2.0 Light rain showers.
2018-Feb-21 11:00 220 8 1.6 2.0 Light rain showers.
2018-Feb-21 10:00 190 2 5.4 2.0 Light rain showers.
2018-Feb-21 09:00 140 5 5.4 4.0 Light rain showers.
2018-Feb-21 08:00 170 4 5.4 4.0